When you browse on this site, cookies collect data to enhance your experience and personalize the content and advertising you see.
Visit our Privacy Policy to learn more. By continuing to use the site, you agree to this use of cookies and data.
  • En España
  • Lista de países
  • Para 7 días
  • Temperatura del agua
  • El tiempo en el mapa
  • Informadores
  • user-avatar
    Iniciar sesión

    Tiempo cada hora Podberezovo

    Hoy, 19 Agosto, Lunes

    Tiempo Temperatura Precipitaciones Viento Presión Humedad
    00:00 +14°C° 0 mm 3 mps 743 mmHg 97%
    01:00 +14°C° 0 mm 3 mps 743 mmHg 97%
    02:00 +13°C° 0 mm 3 mps 744 mmHg 96%
    03:00 +13°C° 0 mm 3 mps 744 mmHg 96%
    04:00 +13°C° 0 mm 3 mps 744 mmHg 97%
    05:00 +13°C° 0 mm 3 mps 745 mmHg 97%
    06:00 +16°C° 0 mm 3 mps 745 mmHg 92%
    07:00 +17°C° 0 mm 3 mps 745 mmHg 87%
    08:00 +19°C° 0 mm 3 mps 745 mmHg 81%
    09:00 +20°C° 0 mm 3 mps 746 mmHg 76%
    10:00 +21°C° 0 mm 3 mps 746 mmHg 70%
    11:00 +24°C° 0 mm 3 mps 746 mmHg 65%
    12:00 +24°C° 0 mm 3 mps 746 mmHg 63%
    13:00 +25°C° 0 mm 3 mps 747 mmHg 61%
    14:00 +25°C° 0 mm 2 mps 747 mmHg 58%
    15:00 +25°C° 0 mm 2 mps 747 mmHg 62%
    16:00 +25°C° 0 mm 2 mps 747 mmHg 66%
    17:00 +25°C° 0 mm 1 mps 747 mmHg 69%
    18:00 +23°C° 0 mm 1 mps 747 mmHg 73%
    19:00 +22°C° 0 mm 1 mps 747 mmHg 77%
    20:00 +20°C° 0 mm 1 mps 748 mmHg 81%
    21:00 +19°C° 0 mm 1 mps 748 mmHg 83%
    22:00 +19°C° 0 mm 1 mps 748 mmHg 85%
    23:00 +18°C° 0 mm 1 mps 748 mmHg 87%

    Mañana, 20 Agosto, Martes

    Tiempo Temperatura Precipitaciones Viento Presión Humedad
    00:00 +18°C° 0 mm 1 mps 748 mmHg 87%
    01:00 +18°C° 0 mm 1 mps 748 mmHg 87%
    02:00 +15°C° 0 mm 0 mps 748 mmHg 87%
    03:00 +15°C° 0 mm 0 mps 749 mmHg 87%
    04:00 +15°C° 0 mm 0 mps 749 mmHg 87%
    05:00 +15°C° 0 mm 0 mps 749 mmHg 86%
    06:00 +17°C° 0 mm 0 mps 749 mmHg 81%
    07:00 +19°C° 0 mm 0 mps 749 mmHg 75%
    08:00 +20°C° 0 mm 0 mps 749 mmHg 69%
    09:00 +24°C° 0 mm 1 mps 749 mmHg 64%
    10:00 +25°C° 0 mm 1 mps 749 mmHg 60%
    11:00 +26°C° 0 mm 1 mps 750 mmHg 55%
    12:00 +26°C° 0 mm 1 mps 749 mmHg 53%
    13:00 +27°C° 0 mm 1 mps 749 mmHg 51%
    14:00 +27°C° 0 mm 1 mps 749 mmHg 49%
    15:00 +27°C° 0 mm 1 mps 749 mmHg 53%
    16:00 +27°C° 0 mm 1 mps 749 mmHg 57%
    17:00 +27°C° 0 mm 1 mps 749 mmHg 61%
    18:00 +25°C° 0 mm 1 mps 749 mmHg 64%
    19:00 +21°C° 0 mm 0 mps 750 mmHg 68%
    20:00 +19°C° 0 mm 0 mps 750 mmHg 71%
    21:00 +19°C° 0 mm 0 mps 750 mmHg 72%
    22:00 +18°C° 0 mm 0 mps 750 mmHg 73%
    23:00 +18°C° 0 mm 0 mps 750 mmHg 74%

    Pasado mañana, 21 Agosto, Miércoles

    Tiempo Temperatura Precipitaciones Viento Presión Humedad
    00:00 +18°C° 0 mm 0 mps 750 mmHg 76%
    01:00 +17°C° 0 mm 0 mps 750 mmHg 77%
    02:00 +17°C° 0 mm 0 mps 750 mmHg 78%
    03:00 +17°C° 0 mm 0 mps 750 mmHg 79%
    04:00 +17°C° 0 mm 0 mps 750 mmHg 80%
    05:00 +17°C° 0 mm 0 mps 750 mmHg 80%
    06:00 +18°C° 0 mm 0 mps 750 mmHg 76%
    07:00 +20°C° 0 mm 0 mps 750 mmHg 71%
    08:00 +22°C° 0 mm 0 mps 751 mmHg 66%
    09:00 +23°C° 0 mm 0 mps 751 mmHg 63%
    10:00 +24°C° 0 mm 0 mps 751 mmHg 60%
    11:00 +28°C° 0 mm 1 mps 750 mmHg 56%
    12:00 +28°C° 0 mm 1 mps 750 mmHg 55%
    13:00 +28°C° 0 mm 1 mps 750 mmHg 54%
    14:00 +29°C° 0 mm 1 mps 750 mmHg 53%
    15:00 +28°C° 0 mm 1 mps 750 mmHg 56%
    16:00 +28°C° 0 mm 1 mps 749 mmHg 60%
    17:00 +28°C° 0 mm 1 mps 749 mmHg 64%
    18:00 +26°C° 0 mm 1 mps 749 mmHg 68%
    19:00 +24°C° 0 mm 1 mps 749 mmHg 72%
    20:00 +23°C° 0 mm 2 mps 749 mmHg 76%
    21:00 +22°C° 0 mm 1 mps 749 mmHg 77%
    22:00 +21°C° 0 mm 1 mps 749 mmHg 79%
    23:00 +21°C° 0 mm 1 mps 749 mmHg 80%

    22 Agosto, Jueves

    Tiempo Temperatura Precipitaciones Viento Presión Humedad
    00:00 +20°C° 0 mm 1 mps 749 mmHg 82%
    01:00 +20°C° 0 mm 1 mps 749 mmHg 83%
    02:00 +20°C° 0 mm 1 mps 748 mmHg 84%
    03:00 +20°C° 0 mm 1 mps 748 mmHg 85%
    04:00 +19°C° 0 mm 1 mps 748 mmHg 86%
    05:00 +19°C° 0 mm 1 mps 748 mmHg 86%
    06:00 +21°C° 0 mm 1 mps 748 mmHg 81%
    07:00 +23°C° 0 mm 1 mps 748 mmHg 76%
    08:00 +24°C° 0 mm 1 mps 748 mmHg 71%
    09:00 +25°C° 0 mm 1 mps 748 mmHg 67%
    10:00 +25°C° 0 mm 0 mps 748 mmHg 62%
    11:00 +26°C° 0 mm 0 mps 748 mmHg 58%
    12:00 +28°C° 0 mm 1 mps 747 mmHg 56%
    13:00 +28°C° 0 mm 1 mps 747 mmHg 55%
    14:00 +28°C° 0 mm 1 mps 747 mmHg 53%
    15:00 +28°C° 0 mm 1 mps 747 mmHg 56%
    16:00 +28°C° 0 mm 1 mps 747 mmHg 59%
    17:00 +27°C° 0 mm 1 mps 746 mmHg 62%
    18:00 +26°C° 0 mm 1 mps 747 mmHg 65%
    19:00 +24°C° 0 mm 1 mps 747 mmHg 67%
    20:00 +23°C° 0 mm 1 mps 747 mmHg 70%
    21:00 +22°C° 0 mm 1 mps 747 mmHg 73%
    22:00 +21°C° 0 mm 1 mps 747 mmHg 76%
    23:00 +20°C° 0 mm 2 mps 747 mmHg 79%

    23 Agosto, Viernes

    Tiempo Temperatura Precipitaciones Viento Presión Humedad
    00:00 +19°C° 0 mm 2 mps 747 mmHg 83%
    01:00 +19°C° 0 mm 2 mps 747 mmHg 87%
    02:00 +19°C° 0 mm 2 mps 747 mmHg 91%
    03:00 +18°C° 0.2 mm 2 mps 747 mmHg 93%
    04:00 +18°C° 0.2 mm 3 mps 747 mmHg 95%
    05:00 +18°C° 0.2 mm 3 mps 747 mmHg 96%
    06:00 +19°C° 0.3 mm 3 mps 747 mmHg 95%
    07:00 +19°C° 0.3 mm 3 mps 748 mmHg 94%
    08:00 +19°C° 0.3 mm 3 mps 748 mmHg 93%
    09:00 +19°C° 0.9 mm 3 mps 748 mmHg 92%
    10:00 +19°C° 0.9 mm 3 mps 748 mmHg 92%
    11:00 +20°C° 0.9 mm 3 mps 748 mmHg 91%
    12:00 +19°C° 1.6 mm 3 mps 748 mmHg 92%
    13:00 +19°C° 1.6 mm 4 mps 748 mmHg 92%
    14:00 +18°C° 1.6 mm 4 mps 748 mmHg 93%
    15:00 +18°C° 0.4 mm 4 mps 748 mmHg 93%
    16:00 +18°C° 0.4 mm 4 mps 748 mmHg 93%
    17:00 +18°C° 0.4 mm 4 mps 748 mmHg 93%
    18:00 +17°C° 0 mm 3 mps 749 mmHg 93%
    19:00 +17°C° 0 mm 3 mps 749 mmHg 93%
    20:00 +16°C° 0 mm 2 mps 749 mmHg 94%
    21:00 +16°C° 0 mm 3 mps 749 mmHg 93%
    22:00 +14°C° 0 mm 3 mps 750 mmHg 93%
    23:00 +14°C° 0 mm 3 mps 750 mmHg 93%

    24 Agosto, Sábado

    Tiempo Temperatura Precipitaciones Viento Presión Humedad
    00:00 +13°C° 0 mm 3 mps 750 mmHg 93%
    01:00 +13°C° 0 mm 3 mps 750 mmHg 92%
    02:00 +13°C° 0 mm 3 mps 750 mmHg 92%
    03:00 +12°C° 0 mm 3 mps 750 mmHg 92%
    04:00 +12°C° 0 mm 3 mps 751 mmHg 92%
    05:00 +12°C° 0 mm 3 mps 751 mmHg 91%
    06:00 +13°C° 0 mm 3 mps 751 mmHg 86%
    07:00 +16°C° 0 mm 3 mps 751 mmHg 81%
    08:00 +17°C° 0 mm 3 mps 751 mmHg 77%
    09:00 +19°C° 0 mm 3 mps 751 mmHg 71%
    10:00 +20°C° 0 mm 3 mps 752 mmHg 65%
    11:00 +21°C° 0 mm 4 mps 752 mmHg 60%
    12:00 +21°C° 0 mm 4 mps 752 mmHg 59%
    13:00 +22°C° 0 mm 3 mps 752 mmHg 58%
    14:00 +22°C° 0 mm 3 mps 752 mmHg 57%
    15:00 +22°C° 0 mm 3 mps 752 mmHg 61%
    16:00 +21°C° 0 mm 3 mps 751 mmHg 65%
    17:00 +21°C° 0 mm 2 mps 751 mmHg 69%
    18:00 +19°C° 0 mm 2 mps 752 mmHg 72%
    19:00 +18°C° 0 mm 2 mps 752 mmHg 75%
    20:00 +16°C° 0 mm 2 mps 752 mmHg 78%
    21:00 +16°C° 0 mm 2 mps 752 mmHg 79%
    22:00 +15°C° 0 mm 1 mps 752 mmHg 80%
    23:00 +15°C° 0 mm 1 mps 752 mmHg 82%
    Mostrar más